Location: Newark
(44.6028°N, 124.0883°W)
Time: 22:34:07
(UTC+00:00)

Vanguard 1 Rocket - Pass Details

Date: 23 October 2019
Orbit: 651 x 4225 km, 34.3° (Epoch: 12 November)

Event Time Altitude Azimuth Distance (km) Brightness Sun altitude
Rises 18:42:04 0° 242° (WSW) 5,135 11.3 31.1°
Reaches altitude 10° 18:44:52 10° 238° (WSW) 4,497 11.1 31.3°
Maximum altitude 18:58:09 57° 164° (SSE) 3,465 11.8 32.1°
Drops below altitude 10° 19:21:17 10° 94° (E) 7,353 12.3 33.2°
Sets 19:27:30 0° 92° (E) 8,472 12.5 33.4°
